TimePDT,TemperatureF,Dew PointF,Humidity,Sea Level PressureIn,VisibilityMPH,Wind Direction,Wind SpeedMPH,Gust SpeedMPH,PrecipitationIn,Events,Conditions,WindDirDegrees,DateUTC
12:56 AM,73.0,30.9,21,29.48,10.0,WSW,9.2,-,N/A,,Mostly Cloudy,240,2013-04-15 07:56:00
1:56 AM,73.0,30.0,20,29.47,10.0,SW,13.8,-,N/A,,Overcast,230,2013-04-15 08:56:00
2:56 AM,72.0,35.1,26,29.48,10.0,SW,17.3,-,N/A,,Overcast,220,2013-04-15 09:56:00
4:56 AM,68.0,39.9,36,29.51,10.0,SW,16.1,-,N/A,,Overcast,220,2013-04-15 11:56:00
5:56 AM,66.9,41.0,39,29.53,10.0,SW,12.7,-,N/A,,Overcast,230,2013-04-15 12:56:00
6:56 AM,68.0,39.9,36,29.55,10.0,SW,15.0,-,N/A,,Clear,220,2013-04-15 13:56:00
7:56 AM,69.1,41.0,36,29.58,10.0,SW,17.3,-,N/A,,Clear,220,2013-04-15 14:56:00
8:56 AM,72.0,37.9,29,29.66,10.0,SW,13.8,-,N/A,,Clear,220,2013-04-15 15:56:00
9:56 AM,75.0,35.1,23,29.66,10.0,South,6.9,23.0,N/A,,Clear,190,2013-04-15 16:56:00
10:56 AM,78.1,35.1,21,29.57,10.0,WSW,12.7,24.2,N/A,,Clear,240,2013-04-15 17:56:00
11:56 AM,79.0,37.9,23,29.57,10.0,SSW,15.0,25.3,N/A,,Clear,210,2013-04-15 18:56:00
12:56 PM,81.0,37.9,21,29.55,10.0,SSW,18.4,31.1,N/A,,Clear,200,2013-04-15 19:56:00
1:56 PM,84.0,39.0,20,29.52,10.0,South,19.6,26.5,N/A,,Clear,180,2013-04-15 20:56:00
2:30 PM,87.8,24.8,10,29.59,10.0,SW,16.1,25.3,N/A,,Clear,220,2013-04-15 21:30:00
2:56 PM,86.0,33.1,15,29.50,10.0,SSW,18.4,24.2,N/A,,Clear,210,2013-04-15 21:56:00
3:08 PM,86.0,33.8,15,29.57,10.0,South,23.0,32.2,N/A,,Clear,190,2013-04-15 22:08:00
3:56 PM,84.9,34.0,16,29.47,10.0,SSW,11.5,26.5,N/A,,Clear,210,2013-04-15 22:56:00
4:56 PM,84.9,30.0,14,29.46,10.0,SSW,23.0,32.2,N/A,,Clear,200,2013-04-15 23:56:00
5:56 PM,82.9,32.0,16,29.46,10.0,South,24.2,31.1,N/A,,Clear,190,2013-04-16 00:56:00
6:56 PM,80.1,35.1,20,29.46,10.0,South,19.6,24.2,N/A,,Clear,190,2013-04-16 01:56:00
7:56 PM,77.0,35.1,22,29.47,10.0,South,18.4,26.5,N/A,,Clear,190,2013-04-16 02:56:00
8:56 PM,73.9,35.1,24,29.50,10.0,SSW,12.7,21.9,N/A,,Clear,200,2013-04-16 03:56:00
9:56 PM,72.0,37.0,28,29.52,10.0,SSW,11.5,-,N/A,,Clear,210,2013-04-16 04:56:00
10:56 PM,70.0,37.9,31,29.53,10.0,SSW,9.2,-,N/A,,Clear,210,2013-04-16 05:56:00
11:56 PM,69.1,39.0,33,29.56,10.0,West,10.4,21.9,N/A,,Clear,270,2013-04-16 06:56:00